Wind_Speed
12 16 17 17 20 23 29 33 30 28 27 27 29 24 24 24 19 13 15 15 11 9 9 5 4 4 6 5 11 20 21 26 24 26 29 23 26 28 35 35 36 42 46 48 45 40 34 29 29
12 5 5 9 15 17 19 25 30 33 34 35 33 33 26 25 24 20 19 17 14 13 12 11 12 15 12 10 13 16 22 27 19 24 28 27 24 26 32 32 34 37 41 45 49 49 42 36 33
15 15 15 11 9 10 15 18 23 23 25 27 29 32 28 27 26 26 24 23 18 17 13 9 15 12 18 16 15 15 20 22 14 16 26 28 19 22 29 29 31 33 37 40 42 45 46 43 37
6 6 10 11 9 7 9 9 13 19 30 36 36 33 33 35 34 30 28 27 22 21 17 15 10 17 12 19 17 16 15 16 15 14 22 26 19 18 24 29 29 30 33 34 36 38 39 44 42
5 11 10 13 4 7 11 13 11 14 15 17 24 33 38 37 35 32 32 32 25 23 20 20 18 20 21 22 19 16 15 12 11 9 16 17 20 18 18 25 26 29 28 31 32 34 36 39 42
9 11 15 14 15 14 16 14 12 11 10 9 8 11 18 26 28 27 22 23 24 23 21 21 19 18 18 22 20 13 13 14 7 8 11 14 17 17 15 21 23 24 27 27 30 32 32 33 36
10 15 13 17 21 19 18 18 14 12 9 6 6 3 3 11 18 23 29 27 25 22 23 22 14 21 19 19 16 16 16 9 7 5 6 15 13 18 12 18 20 20 22 24 26 29 30 31 32
9 8 15 17 20 22 17 17 15 11 8 5 8 9 11 6 9 11 22 26 27 29 24 23 20 23 23 24 26 23 22 7 7 4 5 13 13 11 17 12 16 19 17 20 19 23 24 25 29
8 6 7 11 16 19 15 13 12 9 6 3 5 6 6 5 5 10 13 24 26 30 29 26 27 22 23 24 22 19 19 9 7 8 4 8 8 7 8 9 14 15 16 16 15 16 19 21 24
6 5 11 10 13 13 11 11 11 7 4 6 8 4 6 10 4 5 13 19 26 30 29 27 27 20 23 22 20 21 16 10 7 10 10 3 4 9 2 6 6 11 13 13 14 14 14 19 20
13 15 7 7 9 8 10 11 11 11 10 10 10 9 7 9 8 3 4 9 12 17 20 23 24 26 25 26 25 21 16 13 8 14 12 11 5 7 5 4 3 5 7 9 9 9 10 14 15
18 16 6 1 5 9 14 16 13 8 12 15 13 11 11 8 5 5 5 9 11 11 14 18 21 23 21 21 23 18 18 16 16 17 15 14 7 2 6 6 1 4 5 4 8 7 8 10 15
19 11 9 7 6 5 11 12 16 13 13 19 15 14 15 13 5 4 5 5 14 19 19 20 18 18 16 17 19 21 20 18 19 21 21 18 10 4 7 12 1 6 7 5 5 4 5 8 10
15 14 12 12 11 4 6 7 16 16 20 12 11 15 16 14 8 3 3 2 7 14 19 19 19 16 18 13 14 13 18 21 23 22 21 17 16 10 11 14 9 8 8 6 5 2 2 2 5
14 12 13 13 12 7 4 9 16 16 18 19 13 13 15 19 17 8 3 4 4 5 7 9 16 16 11 11 13 15 13 9 20 22 20 18 16 15 11 14 11 9 8 8 8 5 4 1 7
17 16 17 17 13 11 9 13 14 12 19 18 15 13 16 22 23 15 8 0 2 3 3 3 8 12 17 18 12 13 20 12 13 17 19 25 23 19 14 16 13 11 11 8 9 5 6 3 4
20 16 16 19 15 3 8 10 15 11 18 23 19 19 18 21 22 21 17 14 8 2 3 4 5 9 13 14 19 16 15 18 11 17 16 22 19 21 18 14 13 14 11 8 13 7 4 6 6
17 16 20 23 19 12 10 12 13 10 15 18 17 23 27 20 18 16 20 20 16 9 4 1 4 12 14 11 15 21 21 24 22 16 13 20 25 20 19 15 13 12 13 9 9 6 5 5 7
14 18 20 23 21 18 20 22 18 14 14 14 12 19 27 20 12 18 11 17 23 26 20 5 1 1 5 10 15 19 23 26 25 20 19 20 23 19 18 18 13 16 15 11 11 8 6 4 6
19 18 20 24 21 20 20 17 20 17 17 16 20 27 23 18 12 17 17 14 21 23 26 24 7 2 5 5 12 13 19 21 26 27 25 21 19 20 18 14 14 13 15 14 9 6 7 7 7
23 22 22 27 25 23 26 27 24 25 24 20 28 25 24 20 20 19 16 13 14 24 29 22 14 4 5 6 4 11 16 17 21 26 27 22 19 19 19 16 15 10 9 11 6 4 5 4 7
26 22 25 26 27 27 31 28 29 28 25 27 29 29 27 23 28 19 17 17 17 22 23 16 10 3 5 5 8 9 14 18 21 27 26 25 19 22 25 19 16 14 11 11 8 12 14 12 14
25 27 28 31 33 36 37 35 32 31 30 29 25 32 30 24 23 18 17 19 19 14 13 11 6 2 2 3 6 8 12 19 22 31 30 29 26 25 20 21 18 11 15 19 17 17 19 18 23
25 29 30 37 34 34 31 32 33 37 37 34 31 30 28 28 20 17 18 16 12 6 13 14 12 7 6 5 2 5 9 15 23 33 36 31 28 29 23 22 15 13 14 22 22 23 23 24 27
31 30 30 38 44 34 32 32 36 38 34 32 31 32 34 30 23 18 17 13 9 8 21 30 32 32 31 24 17 9 6 9 17 28 38 42 40 32 31 22 19 16 20 24 26 26 26 28 30
33 28 33 39 42 32 25 32 36 36 33 29 32 36 36 31 25 23 18 5 2 4 8 18 25 29 26 34 35 31 17 8 10 25 33 37 43 45 36 31 28 24 30 27 28 30 29 27 24
32 31 38 34 36 33 29 31 36 34 37 35 34 38 32 28 23 20 17 5 3 4 6 8 16 19 22 26 32 32 20 13 8 14 20 36 38 38 43 34 31 32 30 29 28 25 29 22 18
35 38 34 29 32 36 32 31 39 36 37 38 36 34 29 26 23 15 11 10 7 3 5 5 10 8 22 24 36 26 14 9 13 9 17 18 29 29 30 40 40 35 32 30 31 28 19 17 19
39 36 31 34 32 34 35 31 39 34 29 34 33 33 25 22 23 20 12 8 10 14 9 16 14 12 14 20 32 28 23 8 8 12 14 15 17 21 24 31 34 39 36 32 27 21 19 17 16
35 35 37 37 32 33 33 34 35 30 27 32 34 27 25 25 21 19 16 12 14 8 6 4 7 17 10 25 30 25 22 7 1 4 9 7 9 9 11 14 18 23 25 25 21 16 10 8 7
Wind_Direction
229 238 247 241 243 244 245 246 244 239 235 236 243 246 246 245 239 241 249 263 251 273 292 271 182 136 128 85 357 21 11 15 27 45 41 43 38 37 48 48 46 47 50 50 52 51 55 57 58
91 71 256 269 253 250 251 249 249 246 247 243 241 240 234 236 237 241 250 251 257 265 279 284 221 221 251 279 291 334 355 8 23 41 42 40 42 38 56 52 48 50 52 56 52 50 54 56 59
73 63 33 12 351 290 261 251 251 245 237 250 254 249 241 237 235 239 244 247 250 259 266 257 228 248 255 266 284 309 340 11 24 38 43 37 43 44 53 54 50 55 56 59 56 51 51 57 58
46 34 24 353 249 240 293 275 260 257 250 245 241 242 245 242 246 245 242 247 249 251 251 227 219 224 251 250 265 283 322 7 22 59 52 32 44 37 52 56 52 49 61 60 61 55 51 54 59
346 322 337 337 331 317 314 302 295 264 256 258 253 247 245 247 246 246 245 245 247 246 243 238 235 261 263 259 271 279 300 344 17 43 33 32 38 39 44 52 54 51 52 59 63 62 58 58 64
340 344 340 337 347 351 337 329 315 303 247 250 272 265 250 244 240 235 230 232 231 242 239 244 247 252 247 254 255 278 282 329 356 6 356 43 44 47 40 50 49 49 53 59 65 69 67 67 69
328 350 7 23 11 355 341 328 330 318 312 305 323 354 304 249 235 229 226 228 240 242 238 248 234 226 232 242 251 267 283 306 335 344 52 64 57 69 54 50 45 49 51 57 66 66 73 76 77
290 356 34 17 359 350 336 329 332 321 321 314 304 333 336 304 256 242 227 219 221 235 240 242 243 236 244 249 260 262 266 283 275 285 101 61 42 77 59 38 49 50 46 61 60 60 69 78 82
290 338 356 357 347 338 330 334 333 321 331 354 304 304 8 45 226 228 215 214 217 222 232 243 234 245 238 247 258 265 267 265 237 253 204 65 43 45 69 54 47 57 57 55 48 53 70 75 86
313 349 341 342 346 335 332 343 352 333 350 345 334 7 24 53 73 203 217 208 211 216 225 231 229 238 245 254 258 260 259 262 256 225 230 271 17 18 310 74 59 67 72 62 53 56 70 83 88
290 316 333 19 30 22 15 12 16 10 350 346 347 354 18 28 43 79 205 208 206 210 223 226 230 232 240 247 249 251 248 265 242 210 234 197 278 15 18 160 55 356 57 61 40 55 74 80 90
290 304 279 153 112 74 47 34 20 15 4 344 347 356 4 24 49 87 99 189 195 228 242 231 236 249 251 255 248 246 247 217 207 211 235 200 256 336 5 221 167 271 330 15 7 20 92 86 91
288 280 234 242 233 31 33 33 39 30 16 4 353 0 13 13 42 70 99 129 195 214 224 235 242 252 257 253 253 254 248 218 213 208 227 224 246 217 216 230 256 230 292 311 345 343 101 125 106
279 279 249 240 237 256 352 35 40 25 22 29 29 18 10 14 25 92 109 178 196 201 216 220 231 243 240 210 224 240 212 213 210 210 213 235 233 219 221 217 253 246 261 267 290 322 156 117 105
255 251 257 240 237 246 333 12 27 14 3 23 33 37 30 29 27 11 161 140 190 192 210 242 236 242 247 235 232 221 241 249 213 214 212 220 219 232 222 236 239 268 236 242 221 275 217 113 133
264 253 245 258 270 283 329 347 358 7 358 356 9 52 31 29 29 30 22 83 144 179 194 219 225 234 247 247 244 222 223 234 209 209 231 225 226 242 237 233 249 256 254 232 238 253 206 196 205
265 262 254 254 259 344 347 335 325 342 346 346 352 358 13 22 22 32 35 36 32 341 183 192 256 256 242 237 235 239 233 237 241 228 230 227 224 237 237 236 243 255 233 242 249 209 213 242 261
271 264 267 263 262 266 251 264 288 328 338 347 360 10 354 356 7 13 46 52 44 43 49 312 265 257 250 241 230 225 220 228 228 217 218 227 221 232 247 233 231 223 250 222 212 222 210 230 253
258 259 257 264 270 260 264 273 295 304 323 347 338 340 352 334 335 360 4 49 46 39 35 18 14 108 207 230 238 228 223 221 213 206 222 233 222 230 235 240 229 235 243 215 217 218 204 213 250
238 251 251 264 272 271 270 285 293 288 310 315 311 320 335 332 330 356 360 354 19 21 8 359 347 225 199 220 230 233 226 227 221 214 220 219 213 215 212 220 235 233 208 201 214 242 241 220 265
255 239 247 253 263 267 274 281 289 289 298 308 325 325 341 338 329 349 346 341 347 349 350 351 351 290 255 254 249 223 226 223 214 205 213 215 210 210 216 218 210 193 200 188 200 192 199 231 284
257 252 254 253 252 259 268 279 288 290 292 303 307 336 334 312 315 324 331 339 325 334 344 354 347 274 245 240 240 221 216 218 210 197 202 211 209 237 234 219 210 214 237 214 228 241 246 242 298
245 243 248 252 255 255 263 277 284 288 294 301 303 318 329 309 310 304 310 317 332 354 18 9 10 272 225 271 222 220 218 213 211 202 194 208 212 225 232 207 207 229 246 242 239 236 246 263 283
240 237 239 249 250 258 268 279 283 285 290 297 300 304 315 306 308 300 308 317 333 10 24 51 61 42 17 15 339 271 253 221 211 204 204 199 209 224 227 231 221 231 244 241 243 251 257 271 281
246 238 237 243 249 253 264 272 276 282 290 294 300 304 308 309 309 317 323 321 334 82 73 64 68 58 48 35 11 3 238 220 218 212 211 216 215 217 227 223 220 215 233 236 244 251 260 277 286
250 242 242 243 251 254 264 267 275 279 282 282 287 294 304 302 303 316 315 266 265 108 46 66 59 43 43 24 28 22 357 256 244 221 219 217 221 220 223 224 218 228 244 254 257 266 276 280 284
247 247 241 244 248 246 247 250 261 265 270 276 285 289 288 290 298 299 307 174 257 214 233 6 357 18 19 19 14 5 7 328 287 226 225 224 222 219 218 216 219 224 234 253 266 270 285 284 289
244 246 253 248 239 246 239 238 252 254 259 274 277 277 279 288 293 281 283 196 172 163 197 223 304 355 15 6 7 9 2 339 299 241 224 221 220 221 217 222 232 238 247 252 266 276 264 268 269
240 242 248 249 249 247 252 243 254 262 263 267 271 273 279 278 279 279 276 222 197 226 254 267 269 241 13 346 351 355 354 329 301 261 223 207 200 208 219 227 234 239 248 255 256 255 268 270 278
244 245 242 244 243 244 251 257 259 264 265 267 272 278 274 271 278 272 277 241 221 243 297 331 151 221 273 321 330 333 341 304 296 241 203 159 137 180 205 226 235 239 244 242 245 250 240 277 291
Height
10993 10995 10995 10994 10996 10997 10998 10997 10998 10998 10999 11000 11000 11001 11002 11003 11004 11004 11006 11006 11008 11010 11010 11010 11012 11010 11009 11008 11009 11009 11010 11009 11007 11006 11004 11000 10997 10992 10985 10983 10982 10976 10970 10967 10962 10958 10954 10952 10949
10992 10993 10993 10993 10992 10993 10994 10993 10993 10994 10996 10996 10995 10995 10996 10998 11000 11001 11003 11004 11006 11008 11008 11009 11009 11009 11009 11010 11009 11009 11009 11010 11008 11006 11004 11003 11000 10998 10990 10987 10987 10982 10977 10972 10969 10965 10960 10956 10955
10991 10990 10991 10990 10990 10990 10989 10988 10988 10989 10989 10990 10990 10991 10992 10994 10995 10997 10999 11001 11003 11006 11007 11008 11006 11008 11009 11009 11009 11010 11011 11010 11008 11007 11007 11005 11003 11001 10996 10992 10991 10988 10983 10978 10976 10972 10969 10963 10961
10992 10992 10991 10992 10991 10990 10989 10987 10985 10984 10984 10985 10985 10985 10987 10988 10990 10991 10995 10997 11000 11003 11005 11007 11006 11006 11007 11007 11010 11010 11012 11012 11011 11010 11008 11008 11005 11003 11000 10996 10994 10992 10988 10985 10983 10980 10977 10971 10967
10993 10992 10991 10991 10989 10987 10986 10985 10982 10980 10979 10979 10979 10980 10981 10981 10983 10986 10989 10992 10996 10998 11001 11002 11004 11004 11006 11007 11010 11011 11012 11012 11012 11011 11010 11009 11008 11006 11003 10999 10997 10995 10992 10990 10987 10985 10983 10980 10976
10992 10992 10990 10988 10986 10984 10982 10981 10979 10978 10976 10976 10976 10976 10975 10975 10977 10980 10983 10987 10991 10993 10996 10999 11001 11003 11003 11005 11007 11009 11010 11011 11012 11011 11011 11009 11008 11008 11006 11002 11001 10998 10997 10994 10992 10991 10989 10988 10984
10991 10990 10987 10985 10984 10982 10980 10978 10976 10974 10972 10971 10973 10973 10973 10971 10972 10974 10978 10982 10986 10989 10993 10995 10999 11000 11001 11003 11005 11006 11008 11010 11011 11010 11011 11008 11009 11008 11008 11005 11003 11003 11000 11000 10998 10997 10996 10995 10993
10990 10987 10985 10984 10983 10982 10980 10977 10973 10971 10971 10971 10972 10972 10969 10968 10968 10969 10973 10977 10982 10985 10988 10991 10995 10997 10999 11001 11002 11003 11005 11008 11009 11010 11011 11009 11010 11009 11009 11007 11006 11005 11004 11003 11002 11002 11002 11000 10999
10989 10987 10985 10983 10982 10981 10979 10977 10974 10971 10970 10971 10973 10972 10969 10966 10966 10967 10968 10973 10976 10979 10982 10986 10990 10992 10995 10997 10999 11000 11002 11004 11005 11008 11009 11009 11010 11010 11010 11010 11009 11008 11006 11006 11006 11005 11005 11004 11003
10989 10988 10985 10982 10982 10982 10980 10977 10976 10973 10972 10971 10971 10969 10967 10965 10964 10964 10965 10968 10972 10975 10978 10980 10984 10986 10989 10992 10994 10995 10998 11000 11002 11005 11008 11009 11010 11010 11010 11010 11010 11010 11009 11009 11009 11008 11007 11007 11007
10986 10986 10984 10982 10982 10982 10981 10979 10978 10975 10974 10972 10971 10968 10966 10964 10962 10962 10962 10964 10967 10971 10973 10975 10978 10981 10984 10987 10990 10992 10993 10996 10999 11002 11005 11006 11009 11009 11009 11010 11010 11010 11011 11012 11011 11010 11010 11009 11009
10986 10986 10984 10981 10982 10981 10980 10978 10978 10975 10974 10973 10971 10969 10965 10964 10963 10962 10961 10963 10966 10968 10970 10972 10975 10978 10982 10984 10985 10988 10989 10992 10996 10999 11002 11004 11006 11006 11008 11010 11011 11010 11011 11012 11012 11012 11012 11011 11010
10983 10982 10982 10981 10980 10978 10977 10976 10976 10977 10975 10973 10971 10969 10966 10964 10963 10962 10961 10961 10964 10967 10969 10969 10972 10974 10977 10980 10982 10983 10986 10990 10994 10995 11000 11002 11004 11005 11007 11009 11011 11011 11011 11012 11013 11012 11013 11013 11013
10980 10981 10981 10980 10978 10978 10978 10977 10975 10976 10975 10974 10972 10971 10969 10968 10966 10964 10964 10963 10964 10964 10964 10966 10969 10973 10975 10978 10980 10981 10983 10986 10989 10991 10996 11000 11002 11002 11004 11007 11010 11012 11011 11012 11013 11012 11012 11013 11013
10980 10979 10978 10979 10979 10977 10977 10975 10974 10976 10975 10974 10972 10971 10972 10971 10969 10967 10965 10964 10964 10962 10960 10961 10964 10967 10971 10975 10977 10980 10983 10985 10987 10990 10995 10996 10997 11000 11003 11005 11008 11010 11010 11010 11011 11012 11012 11013 11014
10977 10979 10978 10977 10975 10976 10976 10975 10974 10973 10973 10971 10971 10971 10972 10971 10971 10969 10966 10965 10964 10963 10961 10961 10961 10962 10964 10968 10973 10976 10980 10982 10985 10987 10990 10992 10993 10997 11000 11003 11006 11007 11009 11010 11010 11010 11011 11012 11014
10973 10975 10976 10976 10975 10975 10975 10976 10974 10972 10972 10972 10968 10967 10969 10971 10971 10969 10967 10965 10964 10962 10960 10960 10959 10959 10961 10963 10965 10970 10974 10979 10982 10984 10986 10988 10989 10994 10998 11000 11003 11004 11007 11008 11009 11009 11010 11010 11011
10971 10972 10972 10973 10974 10975 10975 10974 10974 10972 10972 10972 10972 10970 10970 10970 10970 10971 10968 10967 10966 10964 10963 10962 10959 10958 10959 10960 10961 10964 10970 10974 10978 10981 10983 10985 10987 10992 10995 10997 11000 11002 11004 11005 11006 11007 11007 11008 11009
10969 10969 10968 10968 10971 10972 10971 10972 10971 10970 10970 10971 10972 10972 10973 10973 10974 10974 10970 10967 10966 10965 10963 10962 10959 10957 10957 10957 10957 10960 10964 10968 10974 10978 10981 10984 10986 10989 10992 10994 10997 10999 11001 11003 11005 11005 11006 11007 11009
10967 10966 10965 10964 10968 10968 10966 10968 10967 10968 10968 10970 10970 10972 10975 10975 10975 10973 10970 10966 10964 10963 10963 10961 10957 10955 10956 10956 10955 10956 10959 10963 10968 10974 10976 10980 10983 10986 10989 10992 10994 10995 10997 11000 11003 11004 11004 11006 11008
10961 10963 10963 10962 10964 10964 10963 10965 10966 10965 10965 10967 10968 10968 10969 10972 10972 10968 10966 10964 10961 10960 10961 10960 10957 10953 10952 10952 10952 10953 10955 10959 10963 10968 10972 10977 10981 10984 10987 10989 10993 10994 10996 10998 11000 11002 11003 11004 11005
10954 10957 10956 10957 10959 10961 10961 10963 10963 10962 10963 10965 10967 10966 10967 10967 10965 10963 10962 10961 10960 10960 10959 10957 10954 10952 10950 10950 10950 10951 10953 10955 10959 10964 10968 10972 10979 10981 10984 10987 10990 10993 10995 10996 10997 10999 11000 11000 11000
10949 10952 10952 10951 10954 10956 10959 10960 10960 10959 10961 10964 10966 10965 10964 10965 10963 10961 10961 10960 10961 10960 10956 10953 10950 10949 10949 10949 10949 10949 10950 10951 10955 10960 10965 10968 10973 10974 10979 10983 10986 10988 10991 10993 10994 10995 10996 10995 10996
10942 10944 10947 10944 10948 10950 10955 10954 10955 10954 10957 10959 10962 10961 10961 10961 10960 10959 10958 10959 10960 10959 10957 10952 10949 10950 10951 10950 10949 10948 10948 10950 10952 10956 10961 10964 10966 10970 10974 10979 10981 10983 10987 10989 10989 10990 10989 10989 10990
10932 10937 10941 10939 10939 10948 10951 10950 10951 10950 10952 10954 10954 10954 10955 10958 10957 10955 10954 10955 10958 10959 10958 10953 10950 10951 10952 10950 10949 10948 10948 10948 10950 10953 10957 10959 10961 10967 10971 10976 10979 10982 10984 10985 10985 10985 10986 10985 10985
10922 10932 10934 10933 10935 10946 10949 10947 10945 10945 10946 10949 10950 10950 10951 10954 10952 10950 10950 10953 10957 10958 10959 10953 10949 10950 10949 10948 10946 10947 10948 10947 10946 10948 10950 10952 10955 10961 10968 10972 10977 10977 10977 10980 10980 10980 10982 10982 10981
10918 10921 10921 10929 10933 10941 10946 10942 10938 10941 10939 10943 10946 10945 10948 10949 10947 10946 10947 10951 10955 10954 10953 10949 10947 10944 10944 10944 10943 10943 10942 10944 10943 10943 10945 10948 10952 10957 10964 10968 10971 10972 10973 10976 10976 10977 10978 10979 10979
10909 10911 10916 10923 10926 10927 10935 10937 10932 10936 10937 10936 10940 10941 10945 10943 10941 10943 10946 10951 10950 10948 10946 10945 10946 10944 10943 10943 10942 10941 10940 10939 10940 10941 10942 10944 10948 10953 10958 10963 10965 10967 10968 10970 10973 10975 10974 10976 10976
10897 10903 10910 10911 10917 10921 10924 10930 10926 10930 10934 10932 10935 10935 10940 10939 10938 10937 10943 10946 10945 10943 10942 10940 10942 10941 10939 10940 10942 10940 10940 10940 10938 10938 10940 10942 10946 10949 10954 10958 10960 10961 10964 10966 10968 10968 10968 10969 10969
10892 10896 10898 10901 10908 10912 10919 10923 10923 10927 10931 10927 10926 10932 10933 10933 10933 10933 10936 10939 10941 10940 10939 10936 10931 10930 10931 10935 10940 10939 10939 10940 10939 10939 10942 10944 10946 10948 10951 10954 10958 10958 10959 10961 10962 10964 10965 10964 10964